Regional Weather Roundup
Issued by NWS Albany, NY

Home | Current Version | Previous Version | Text Only | Print | Product List | Glossary On
Versions: 1 2 3 4 5 6 7 8 9 10 11 12 13 14 15 16 17 18 19 20 21 22 23 24 25 26 27
000
ASUS41 KALY 231510
RWRALY

NEW YORK STATE HOURLY WEATHER ROUNDUP
NATIONAL WEATHER SERVICE ALBANY NY
1100 AM EDT MON OCT 23 2017

NOTE: "FAIR" INDICATES FEW OR NO CLOUDS BELOW 12,000 FEET WITH NO
SIGNIFICANT WEATHER AND/OR NO OBSTRUCTIONS TO VISIBILITY.

NYZ032-033-038>043-046>054-057>066-NYZ062>081-082-084-231600-
EAST


CITY           SKY/WX    TMP DP  RH WIND       PRES   REMARKS
ALBANY         CLOUDY    64  56  75 SW12      30.25F
GLENS FALLS    MOSUNNY   64  54  69 S8        30.24F
POUGHKEEPSIE   CLOUDY    65  57  75 SE8       30.27F
NEWBURGH       CLOUDY    64  61  88 S8        30.29F
MONTGOMERY     CLOUDY    63  58  83 N3        30.26F
WHITE PLAINS   PTSUNNY   67  62  84 SE7       30.28F
ISLIP          PTSUNNY   70  63  78 S12       30.29F
NEW YORK CITY  PTSUNNY   72  62  71 SE9       30.26F
CENTRAL PARK   SUNNY     70  62  76 VRB3      30.29F
$$

NYZ005>009-017-018-044>046-055-056-231600-
CENTRAL


CITY           SKY/WX    TMP DP  RH WIND       PRES   REMARKS
FULTON         CLOUDY    65  53  65 SE9G17    30.12F
SYRACUSE       CLOUDY    65  54  67 SE9       30.14F
ROME           CLOUDY    62  52  69 SE7       30.20F
ELMIRA         CLOUDY    65  57  75 S12       30.14F
BINGHAMTON     CLOUDY    59  54  83 S14G25    30.19F
MONTICELLO     CLOUDY    58  57  97 SE9       30.28F FOG
$$

NYZ026>034-041>043-087-231600-
NORTH


CITY           SKY/WX    TMP DP  RH WIND       PRES   REMARKS
WATERTOWN      CLOUDY    67  53  61 S15G23    30.10F
FORT DRUM      NOT AVBL
OGDENSBURG     FAIR      67  48  50 S9        30.10F
MASSENA        MOSUNNY   68  52  56 S7        30.13F
SARANAC LAKE   MOSUNNY   63  40  42 SW13G18   30.18F
PLATTSBURGH    MOSUNNY   63  46  54 SE15      30.18F
$$

NYZ001>004-010>016-019>021-085-231600-
WEST


CITY           SKY/WX    TMP DP  RH WIND       PRES   REMARKS
NIAGARA FALLS  CLOUDY    70  53  54 S12       30.00F
BUFFALO        PTSUNNY   68  53  58 S12       30.01F
DUNKIRK        CLOUDY    69  53  56 VRB3      29.99F
JAMESTOWN      CLOUDY    60  52  74 S12       30.05F
WELLSVILLE     CLOUDY    62  52  69 S16G29    30.13F
ROCHESTER      CLOUDY    66  53  63 S17G25    30.06F
PENN YAN       PTSUNNY   65  52  62 S17G25    30.11F
$$

             KEY
       WCI = WIND CHILL INDEX
       VSB = VISIBILITY
       HX  = HEAT INDEX
$$




USA.gov is the U.S. government's official web portal to all federal, state and local government web resources and services.